Flag for U.S.A. Weather past 2 weeks in Dayton, Ohio, U.S.A.

Now
54 °F

Passing clouds.


Feels Like: 53 °F
Forecast: 46 / 50 °F
Wind: 5 mph from Southeast

Location: Dayton / Wright-Patterson Air Force Base

Current Time: Apr 24, 2015 at 11:08:27 PM

Latest Report: Apr 24, 2015 at 9:58 PM


Visibility: 10 mi

Pressure: 29.95 "Hg

Humidity: 35%

Dew point: 27 °F

Location of DaytonLocation

Historic Weather in Dayton — Graph

°F

Dayton temperature yesterday

Maximum temperature yesterday: 53 °F (at 4:58 PM)
Minimum temperature yesterday: 29 °F (at 6:58 AM)
Average temperature yesterday: 42 °F

Past Weeks' High & Low Weather Summary

 TemperatureHumidityPressure
High78 °F (Apr 13, 4:58 PM)100% (Apr 16, 9:58 PM)30.30 "Hg (Apr 16, 9:58 PM)
Low29 °F (Apr 23, 6:58 AM)20% (Apr 15, 2:58 PM)29.39 "Hg (Apr 20, 12:58 AM)
Average56 °F59%29.99 "Hg
* Reported Apr 9 9:01 PM — Apr 24 9:58 PM, Dayton, Weather by CustomWeather, © 2015

Note: Actual official high and low records may vary slightly from our data, if they occured in-between our weather recording intervals... More about our weather records

Advertising

Dayton weather history for previous 24 hours

 ConditionsComfort  
Time TempWeatherWind HumidityBarometerVisibility
9:58 PM
Fri, Apr 24
54 °FPassing clouds.5 mph35%29.95 "Hg10 mi
8:58 PM55 °FScattered clouds.5 mph32%29.98 "Hg10 mi
7:58 PM57 °FPartly sunny.5 mph29%29.99 "Hg10 mi
6:58 PM58 °FSunny.6 mph28%30.00 "Hg10 mi
5:58 PM59 °FPassing clouds.5 mph28%30.00 "Hg10 mi
4:58 PM58 °FScattered clouds.7 mph29%30.02 "Hg10 mi
3:58 PM58 °FSunny.5 mph28%30.04 "Hg10 mi
2:58 PM58 °FSunny.13 mph28%30.08 "Hg10 mi
1:58 PM56 °FPassing clouds.6 mph29%30.10 "Hg10 mi
12:58 PM54 °FSunny.1 mph32%30.12 "Hg10 mi
11:58 AM52 °FSunny.5 mph33%30.13 "Hg10 mi
10:58 AM50 °FSunny.7 mph37%30.15 "Hg10 mi
9:58 AM47 °FSunny.6 mph40%30.14 "Hg10 mi
8:58 AM39 °FSunny.3 mph71%30.16 "Hg10 mi
7:58 AM30 °FSunny.No wind92%30.15 "Hg10 mi
6:58 AM29 °FClear.2 mph83%30.14 "Hg10 mi
5:58 AM29 °FClear.No wind84%30.13 "Hg10 mi
4:58 AM31 °FClear.1 mph78%30.12 "Hg10 mi
3:58 AM31 °FClear.1 mph79%30.11 "Hg10 mi
2:58 AM31 °FClear.No wind78%30.11 "Hg10 mi
1:58 AM31 °FClear.1 mph87%30.12 "Hg10 mi
12:58 AM33 °FClear.2 mph78%30.11 "Hg10 mi
11:58 PM
Thu, Apr 23
40 °FClear.1 mph53%30.09 "Hg10 mi
Weather by CustomWeather, © 2015

See weather overviewHow to use our weather pages